Location: Unspecified
(41.1850°N, 73.2650°W)
Time: 02:53:45
(UTC+00:00)

SL-08 R/B - Pass Details

Date: 17 March 2026
Orbit: 946 x 992 km, 83.0° (Epoch: 13 April)

Event Time Altitude Azimuth Distance (km) Brightness Sun altitude
Exits shadow 03:10:14 16° 278° (W) 2,262 6.7 -42.9°
Maximum altitude 03:11:28 17° 293° (WNW) 2,209 6.8 -43.1°
Drops below altitude 10° 03:15:17 10° 332° (NNW) 2,674 7.4 -43.5°
Sets 03:18:48 0° 352° (N) 3,624 8.1 -43.9°
